sat.trackr.live / text

‹ back to catalog

STARLINK-36192

NORAD 67024 · 2025-293X

PAYLOAD ACTIVE UNKNOWN

§ Identity

Operator
Country
US
Launch date
2025-12-10
Launch site
AFWTR
Launch vehicle
Mass (kg)
RCS (m²)

Purposes: comms

External: N2YO · Heavens-Above · Gunter

§ Orbital elements

Epoch: 2026-05-25T01:02:37.944672Z

Period
96.11 min
Inclination
70.0010°
Eccentricity
0.0003189
Mean motion
14.98327207 rev/d
Perigee alt
569.8 km
Apogee alt
574.3 km
Semi-major
6,950.2 km
B*
6.3130e-4
RAAN
261.9856°
Arg perigee
265.1233°
Mean anomaly
94.9562°
Rev number
2,632

§ Raw data

STARLINK-361921 67024U 25293X   26145.04349473  .00007447  00000+0  63130-3 0  99992 67024  70.0010 261.9856 0003189 265.1233  94.9562 14.98327207 26320

JSON: /api/v1/satellites/67024 · /tle

For live sub-satellite position, see the globe view (requires WebGL).

§ Visibility from observer

Set your observer location to see the next 7 days of passes ≥ 10°. The values pass through the URL so the page stays shareable.

No JS? Fill the form by hand. The geolocation button needs JavaScript.